(290049) = 2005 QL47 = 2008 CO190

Discovered at Palomar on 2005-08-26 by NEAT.

Orbit

Orbit type: Main Belt

Note: WebGL enabled browser required.

epoch2023-09-13.0
epoch JD2460200.5
perihelion date2018-05-22.14382
perihelion JD2458260.64382
argument of perihelion (°)296.72916
ascending node (°)98.71720
inclination (°)3.57349
eccentricity0.1502264
perihelion distance (AU)2.8192462
Tisserand w.r.t. Jupiter3.1
ΔV w.r.t. Earth (km/sec)10.5
semimajor axis (AU)3.3176437
mean anomaly (°)316.39438
mean daily motion (°/day)0.16310200
aphelion distance (AU)3.816
period (years)6.04
P-vector [x]0.81294235
P-vector [y]0.55398716
P-vector [z]0.17950754
Q-vector [x]-0.57907606
Q-vector [y]0.73640527
Q-vector [z]0.34982595
absolute magnitude15.71
phase slope0.15
uncertainty0
referenceMPO 779081
observations used215
oppositions15
arc length (days)7907
first opposition used2002
last opposition used2023
residual rms (arc-secs)0.67
perturbers coarse indicatorM-v
perturbers precise indicator003Ek
first observation date used2002-03-12.0
last observation date used2023-11-04.0
computer nameMPCLINUX
JD of orbit computation2456760.651776
perihelion JD uncertainty (days)1.0047E-04
argument of perihelion uncertainty (°)7.5727E-05
ascending node uncertainty (°)7.3417E-05
inclination uncertainty (°)3.9724E-06
eccentricity uncertainty 3.8380E-08
perihelion distance uncertainty (AU)1.2274E-07
Minimum Orbit Intersection Distances (in AU)
for orbit epoch: 2460200.5, reference: E2023-V42
Mercury2.49203
Venus2.0955
Earth1.8276
Mars1.35724
Jupiter1.61123
Saturn5.81557
Uranus14.7623
Neptune26.8861

Observations

217 total observations over interval: 2002 03 12.252250 – 2023 11 04.240764
These data are available for download (format description).

Date (UT) J2000 RA J2000 Dec Magn Location Ref
2002 03 12.252250 11 12 50.395 +10 02 10.02 20.81 V 645 – Apache Point-Sloan Digital Sky Survey MPS 279617
2002 03 12.255722 11 12 50.243 +10 02 10.93 21.55   645 – Apache Point-Sloan Digital Sky Survey MPS 279617
2005 08 26.40402 23 41 31.84 -07 19 15.1 19.5   644 – Palomar Mountain/NEAT MPS 140298
2005 08 26.43080 23 41 30.92 -07 19 22.9 19.5   644 – Palomar Mountain/NEAT MPS 140298
2005 08 26.45388 23 41 30.11 -07 19 29.7 20.1   644 – Palomar Mountain/NEAT MPS 140298
2005 08 28.32570 23 40 25.32 -07 28 38.8 20.1 V 691 – Steward Observatory, Kitt Peak-Spacewatch MPS 140298
2005 08 28.34301 23 40 24.69 -07 28 44.0 20.0 V 691 – Steward Observatory, Kitt Peak-Spacewatch MPS 140298
2005 08 28.36372 23 40 23.93 -07 28 50.0 20.1 V 691 – Steward Observatory, Kitt Peak-Spacewatch MPS 140298
2005 09 01.31663 23 37 57.98 -07 48 38.4 20.3 V 691 – Steward Observatory, Kitt Peak-Spacewatch MPS 140298
2005 09 01.33395 23 37 57.29 -07 48 43.5 20.1 V 691 – Steward Observatory, Kitt Peak-Spacewatch MPS 140298
2005 09 01.35128 23 37 56.58 -07 48 48.9 20.1 V 691 – Steward Observatory, Kitt Peak-Spacewatch MPS 140298
2005 09 11.29436 23 31 11.58 -08 39 21.3 20.0 V 691 – Steward Observatory, Kitt Peak-Spacewatch MPS 141746
2005 09 11.31171 23 31 10.75 -08 39 26.0 20.7 V 691 – Steward Observatory, Kitt Peak-Spacewatch MPS 141746
2005 09 11.32952 23 31 10.05 -08 39 31.9 20.2 V 691 – Steward Observatory, Kitt Peak-Spacewatch MPS 141746
2007 01 08.33860 05 40 32.48 +22 47 59.7 19.7 V G96 – Mt. Lemmon Survey MPS 195530
2007 01 08.34313 05 40 32.30 +22 48 00.1 19.9 V G96 – Mt. Lemmon Survey MPS 195530
2007 01 08.34763 05 40 32.08 +22 48 00.5 20.1 V G96 – Mt. Lemmon Survey MPS 195530
2007 01 08.35215 05 40 31.90 +22 48 00.2 19.9 V G96 – Mt. Lemmon Survey MPS 195530
2007 01 10.08995 05 39 20.44 +22 49 26.1   691 – Steward Observatory, Kitt Peak-Spacewatch MPS 195530
2007 01 10.11094 05 39 19.54 +22 49 27.2   691 – Steward Observatory, Kitt Peak-Spacewatch MPS 195530
2007 01 10.13192 05 39 18.67 +22 49 28.3   691 – Steward Observatory, Kitt Peak-Spacewatch MPS 195530
2008 02 08.34464 11 18 00.82 +09 03 06.2 20.8 V 691 – Steward Observatory, Kitt Peak-Spacewatch MPC 62518
2008 02 08.34710 11 18 00.69 +09 03 07.2 20.8 V 691 – Steward Observatory, Kitt Peak-Spacewatch MPC 62518
2008 02 08.36224 11 18 00.22 +09 03 11.3 21.0 V 691 – Steward Observatory, Kitt Peak-Spacewatch MPC 62518
2008 02 08.36470 11 18 00.12 +09 03 12.0 20.8 V 691 – Steward Observatory, Kitt Peak-Spacewatch MPC 62518
2008 02 08.37737 11 17 59.68 +09 03 15.7 20.7 V 691 – Steward Observatory, Kitt Peak-Spacewatch MPC 62518
2008 02 08.37983 11 17 59.64 +09 03 15.8 21.0 V 691 – Steward Observatory, Kitt Peak-Spacewatch MPC 62518
2008 02 12.34412 11 15 48.51 +09 21 12.4 21.0 V 691 – Steward Observatory, Kitt Peak-Spacewatch MPS 279617
2008 02 12.36176 11 15 47.87 +09 21 17.4 20.9 V 691 – Steward Observatory, Kitt Peak-Spacewatch MPS 279617
2008 02 12.37938 11 15 47.22 +09 21 22.6 21.3 V 691 – Steward Observatory, Kitt Peak-Spacewatch MPS 279617
2008 02 28.28399 11 05 21.33 +10 38 26.4 20.1 V G96 – Mt. Lemmon Survey MPS 279617
2008 02 28.29435 11 05 20.86 +10 38 29.5 20.0 V G96 – Mt. Lemmon Survey MPS 279617
2008 02 28.30477 11 05 20.40 +10 38 32.6 20.1 V G96 – Mt. Lemmon Survey MPS 279617
2008 02 28.31523 11 05 19.93 +10 38 35.6 19.9 V G96 – Mt. Lemmon Survey MPS 279617
2009 04 22.32174 14 26 58.95 -10 00 16.7 21.0 V G96 – Mt. Lemmon Survey MPS 284362
2009 04 22.32913 14 26 58.63 -10 00 15.0 20.7 V G96 – Mt. Lemmon Survey MPS 284362
2009 04 22.33667 14 26 58.30 -10 00 13.9 20.7 V G96 – Mt. Lemmon Survey MPS 284362
2009 04 22.34420 14 26 57.94 -10 00 12.5 20.1 V G96 – Mt. Lemmon Survey MPS 284362
2010 06 08.454298 18 14 13.142 -22 32 42.17 20.45 r F51 – Pan-STARRS 1, Haleakala MPS 337338
2010 06 08.466508 18 14 12.591 -22 32 42.81 20.70 r F51 – Pan-STARRS 1, Haleakala MPS 337338
2011 08 24.44140 23 20 06.841 -09 25 49.18 20.5 w F51 – Pan-STARRS 1, Haleakala MPS 388628
2011 08 24.46934 23 20 05.778 -09 25 57.55 20.4 w F51 – Pan-STARRS 1, Haleakala MPS 388628
2011 08 24.48333 23 20 05.244 -09 26 01.73 20.4 w F51 – Pan-STARRS 1, Haleakala MPS 388628
2011 08 28.48663 23 17 33.995 -09 46 13.43 19.9 r F51 – Pan-STARRS 1, Haleakala MPS 389158
2011 08 28.49657 23 17 33.596 -09 46 16.59 19.9 r F51 – Pan-STARRS 1, Haleakala MPS 389158
2011 08 28.50890 23 17 33.094 -09 46 20.13 20.4 g F51 – Pan-STARRS 1, Haleakala MPS 389158
2011 08 28.53240 23 17 32.131 -09 46 27.53 20.5 g F51 – Pan-STARRS 1, Haleakala MPS 389158
2012 11 05.44984 06 01 35.43 +21 33 31.9 20.6 V 691 – Steward Observatory, Kitt Peak-Spacewatch MPS 441509
2012 11 05.46757 06 01 35.18 +21 33 32.3 20.6 V 691 – Steward Observatory, Kitt Peak-Spacewatch MPS 441509
2012 11 05.48277 06 01 34.97 +21 33 32.9 20.6 V 691 – Steward Observatory, Kitt Peak-Spacewatch MPS 441509
2012 11 06.42774 06 01 21.84 +21 34 00.5 20.8 V 691 – Steward Observatory, Kitt Peak-Spacewatch MPS 441509
2012 11 06.44551 06 01 21.53 +21 34 01.0 21.0 V 691 – Steward Observatory, Kitt Peak-Spacewatch MPS 441509
2012 11 06.46368 06 01 21.24 +21 34 01.2 20.6 V 691 – Steward Observatory, Kitt Peak-Spacewatch MPS 441509
2012 11 07.43166 06 01 06.25 +21 34 30.1 20.2 V 691 – Steward Observatory, Kitt Peak-Spacewatch MPS 441509
2012 11 07.44693 06 01 05.99 +21 34 30.7 20.5 V 691 – Steward Observatory, Kitt Peak-Spacewatch MPS 441509
2012 11 07.45973 06 01 05.77 +21 34 31.8 20.2 V 691 – Steward Observatory, Kitt Peak-Spacewatch MPS 441509
2012 11 23.32038 05 53 40.87 +21 44 01.4 19.2 R 926 – Tenagra II Observatory, Nogales MPS 444775
2012 11 23.33582 05 53 40.24 +21 44 01.3 19.4 R 926 – Tenagra II Observatory, Nogales MPS 444775
2012 11 23.35122 05 53 39.63 +21 44 01.8 19.3 R 926 – Tenagra II Observatory, Nogales MPS 444775
2013 01 07.25622 05 17 54.991 +22 11 37.94 20.1 w F51 – Pan-STARRS 1, Haleakala MPS 450811
2013 01 07.27485 05 17 54.258 +22 11 38.80 20.2 w F51 – Pan-STARRS 1, Haleakala MPS 450811
2013 01 07.30684 05 17 53.006 +22 11 39.92 20.2 w F51 – Pan-STARRS 1, Haleakala MPS 450811
2013 01 09.09997 05 16 47.69 +22 12 44.9 20.4 V 691 – Steward Observatory, Kitt Peak-Spacewatch MPS 450811
2013 01 09.13267 05 16 46.47 +22 12 46.4 20.4 V 691 – Steward Observatory, Kitt Peak-Spacewatch MPS 450811
2013 01 09.15658 05 16 45.60 +22 12 47.5 20.3 V 691 – Steward Observatory, Kitt Peak-Spacewatch MPS 450811
2013 01 17.35339 05 12 41.43 +22 18 20.3 20.0 V G96 – Mt. Lemmon Survey MPS 452166
2013 01 17.35630 05 12 41.40 +22 18 20.5 20.1 V G96 – Mt. Lemmon Survey MPS 452166
2013 01 17.35917 05 12 41.29 +22 18 21.0 20.1 V G96 – Mt. Lemmon Survey MPS 452166
2013 01 17.36203 05 12 41.14 +22 18 20.9 20.0 V G96 – Mt. Lemmon Survey MPS 452166
2013 01 19.13148 05 12 01.51 +22 19 42.0 20.3 V G96 – Mt. Lemmon Survey MPS 453126
2013 01 19.13741 05 12 01.36 +22 19 42.3 20.1 V G96 – Mt. Lemmon Survey MPS 453126
2013 01 19.14335 05 12 01.22 +22 19 42.6 19.9 V G96 – Mt. Lemmon Survey MPS 453126
2013 01 19.14929 05 12 01.08 +22 19 42.6 19.9 V G96 – Mt. Lemmon Survey MPS 453126
2014 02 21.21276 10 54 36.61 +11 34 25.2   691 – Steward Observatory, Kitt Peak-Spacewatch MPS 502242
2014 02 21.23053 10 54 35.85 +11 34 30.4   691 – Steward Observatory, Kitt Peak-Spacewatch MPS 502242
2014 02 21.25178 10 54 34.94 +11 34 36.4   691 – Steward Observatory, Kitt Peak-Spacewatch MPS 502242
2014 02 26.35185 10 50 56.708 +11 59 25.59 20.6 w F51 – Pan-STARRS 1, Haleakala MPS 503802
2014 02 26.36379 10 50 56.167 +11 59 28.92 20.6 w F51 – Pan-STARRS 1, Haleakala MPS 503802
2014 02 26.37569 10 50 55.643 +11 59 32.43 20.6 w F51 – Pan-STARRS 1, Haleakala MPS 503802
2014 02 26.38761 10 50 55.116 +11 59 36.00 20.5 w F51 – Pan-STARRS 1, Haleakala MPS 503802
2014 03 20.48294 10 35 45.700 +13 30 58.00 20.8 r F51 – Pan-STARRS 1, Haleakala MPS 508340
2014 03 20.49460 10 35 45.276 +13 31 00.48 20.7 r F51 – Pan-STARRS 1, Haleakala MPS 508340
2014 03 20.50613 10 35 44.839 +13 31 02.53 20.8 r F51 – Pan-STARRS 1, Haleakala MPS 508340
2015 03 17.55371 14 32 23.340 -10 31 00.79 21.6 w F51 – Pan-STARRS 1, Haleakala MPS 591841
2015 03 17.57980 14 32 22.826 -10 30 57.31 21.5 w F51 – Pan-STARRS 1, Haleakala MPS 591841
